Location: Bruchsal
(49.1250°N, 8.5844°E)
Time: 17:28:11
(UTC+02:00)

ISS - Visible Passes

Search period start: 25 September 2022 00:00
Search period end: 05 October 2022 00:00
Orbit: 414 x 417 km, 51.6° (Epoch: 25 September)

Date Brightness Start Highest point End Pass type
(mag) Time Alt. Az. Time Alt. Az. Time Alt. Az.
25 Sep -3.3 20:33:13 10° WNW 20:36:32 53° N 20:38:20 23° ENE visible
25 Sep -1.1 22:10:02 10° WNW 22:11:13 20° WNW 22:11:13 20° WNW visible
26 Sep -3.2 19:44:30 10° W 19:47:49 53° N 19:51:07 10° ENE visible
26 Sep -3.5 21:21:23 10° WNW 21:24:22 67° NW 21:24:22 67° NW visible
27 Sep -3.6 20:32:42 10° WNW 20:36:03 66° NNE 20:37:32 30° E visible
27 Sep -0.9 22:09:33 10° WNW 22:10:25 16° W 22:10:25 16° W visible
28 Sep -3.4 19:43:59 10° WNW 19:47:19 57° N 19:50:38 10° E visible
28 Sep -3.0 21:20:46 10° WNW 21:23:35 49° WSW 21:23:35 49° WSW visible
29 Sep -3.8 20:32:03 10° WNW 20:35:25 79° SSW 20:36:46 33° ESE visible
29 Sep -0.6 22:09:20 10° W 22:09:39 11° W 22:09:39 11° W visible
30 Sep -3.7 19:43:19 10° WNW 19:46:41 79° NNE 19:50:00 10° ESE visible
30 Sep -2.1 21:20:17 10° W 21:22:53 27° SW 21:22:53 27° SW visible
01 Oct -2.8 20:31:23 10° WNW 20:34:35 41° SSW 20:36:09 24° SSE visible
02 Oct -3.3 19:42:34 10° WNW 19:45:53 60° SSW 19:49:12 10° SE visible
02 Oct -1.1 21:20:27 10° WSW 21:22:04 13° SW 21:22:23 13° SW visible
03 Oct -1.5 20:30:59 10° W 20:33:31 20° SW 20:35:49 11° S visible
04 Oct -2.0 19:41:54 10° W 19:44:53 30° SW 19:47:51 10° SSE visible
